Time,TemperatureF,DewpointF,PressureIn,WindDirection,WindDirectionDegrees,WindSpeedMPH,WindSpeedGustMPH,Humidity,HourlyPrecipIn,Conditions,Clouds,dailyrainin,SoftwareType,DateUTC
2013-08-13 00:05:00,52.0,46.7,29.91,SSE,157,3.7,-999.0,82,-99.99,,,0.00,Acu-Link.com,2013-08-13 04:05:00,
2013-08-13 00:20:00,51.8,46.5,29.91,SSE,157,4.7,-999.0,82,-99.99,,,0.00,Acu-Link.com,2013-08-13 04:20:00,
2013-08-13 00:36:00,51.6,46.6,29.92,SSE,157,2.2,-999.0,83,-99.99,,,0.00,Acu-Link.com,2013-08-13 04:36:00,
2013-08-13 00:51:00,51.1,46.4,29.92,SSE,157,3.2,-999.0,84,-99.99,,,0.00,Acu-Link.com,2013-08-13 04:51:00,
2013-08-13 01:06:00,51.3,46.6,29.92,SSE,157,3.7,-999.0,84,-99.99,,,0.00,Acu-Link.com,2013-08-13 05:06:00,
2013-08-13 01:22:00,51.4,46.4,29.92,South,180,3.7,-999.0,83,-99.99,,,0.00,Acu-Link.com,2013-08-13 05:22:00,
2013-08-13 01:37:00,51.6,46.6,29.92,South,180,4.2,-999.0,83,-99.99,,,0.00,Acu-Link.com,2013-08-13 05:37:00,
2013-08-13 01:52:00,51.8,46.8,29.92,SSE,157,3.7,-999.0,83,-99.99,,,0.00,Acu-Link.com,2013-08-13 05:52:00,
2013-08-13 02:07:00,51.6,46.3,29.91,SSE,157,3.7,-999.0,82,-99.99,,,0.00,Acu-Link.com,2013-08-13 06:07:00,
2013-08-13 02:22:00,52.5,47.2,29.91,SSE,157,3.2,-999.0,82,-99.99,,,0.00,Acu-Link.com,2013-08-13 06:22:00,
2013-08-13 02:37:00,52.2,46.5,29.91,SSE,157,4.2,-999.0,81,-99.99,,,0.00,Acu-Link.com,2013-08-13 06:37:00,
2013-08-13 02:53:00,52.5,46.2,29.91,SSE,157,7.3,-999.0,79,-99.99,,,0.00,Acu-Link.com,2013-08-13 06:53:00,
2013-08-13 03:08:00,52.5,46.8,29.92,South,180,6.3,-999.0,81,-99.99,,,0.00,Acu-Link.com,2013-08-13 07:08:00,
2013-08-13 03:23:00,52.2,46.9,29.92,South,180,4.2,-999.0,82,-99.99,,,0.00,Acu-Link.com,2013-08-13 07:23:00,
2013-08-13 03:38:00,51.1,45.8,29.92,SE,135,3.7,-999.0,82,-99.99,,,0.00,Acu-Link.com,2013-08-13 07:38:00,
2013-08-13 03:54:00,52.0,46.7,29.92,South,180,5.8,-999.0,82,-99.99,,,0.00,Acu-Link.com,2013-08-13 07:54:00,
2013-08-13 04:09:00,52.2,46.5,29.92,SSE,157,3.7,-999.0,81,-99.99,,,0.00,Acu-Link.com,2013-08-13 08:09:00,
2013-08-13 04:25:00,52.2,46.2,29.92,SSE,157,9.9,-999.0,80,-99.99,,,0.00,Acu-Link.com,2013-08-13 08:25:00,
2013-08-13 04:40:00,52.2,46.2,29.92,SSE,157,6.3,-999.0,80,-99.99,,,0.00,Acu-Link.com,2013-08-13 08:40:00,
2013-08-13 04:55:00,52.3,46.3,29.92,ESE,112,4.2,-999.0,80,-99.99,,,0.00,Acu-Link.com,2013-08-13 08:55:00,
2013-08-13 05:10:00,52.2,46.5,29.93,SSE,157,3.7,-999.0,81,-99.99,,,0.00,Acu-Link.com,2013-08-13 09:10:00,
2013-08-13 05:25:00,52.2,47.2,29.93,SSE,157,4.7,-999.0,83,-99.99,,,0.00,Acu-Link.com,2013-08-13 09:25:00,
2013-08-13 05:41:00,52.9,47.2,29.94,SSW,202,5.3,-999.0,81,-99.99,,,0.00,Acu-Link.com,2013-08-13 09:41:00,
2013-08-13 05:56:00,52.2,46.9,29.93,SSE,157,5.8,-999.0,82,-99.99,,,0.00,Acu-Link.com,2013-08-13 09:56:00,
2013-08-13 06:11:00,52.2,47.2,29.94,SSE,157,5.8,-999.0,83,-99.99,,,0.00,Acu-Link.com,2013-08-13 10:11:00,
2013-08-13 06:26:00,51.8,46.8,29.94,South,180,4.7,-999.0,83,-99.99,,,0.00,Acu-Link.com,2013-08-13 10:26:00,
2013-08-13 06:42:00,52.0,46.7,29.94,SSE,157,4.7,-999.0,82,-99.99,,,0.00,Acu-Link.com,2013-08-13 10:42:00,
2013-08-13 06:57:00,52.0,47.0,29.95,SSE,157,3.7,-999.0,83,-99.99,,,0.00,Acu-Link.com,2013-08-13 10:57:00,
2013-08-13 07:12:00,52.5,47.5,29.95,SE,135,6.8,-999.0,83,-99.99,,,0.00,Acu-Link.com,2013-08-13 11:12:00,
2013-08-13 07:27:00,53.8,49.1,29.94,SSE,157,6.3,-999.0,84,-99.99,,,0.00,Acu-Link.com,2013-08-13 11:27:00,
2013-08-13 07:42:00,54.7,50.0,29.95,South,180,9.9,-999.0,84,-99.99,,,0.00,Acu-Link.com,2013-08-13 11:42:00,
2013-08-13 07:57:00,55.6,50.8,29.95,South,180,9.9,-999.0,84,-99.99,,,0.00,Acu-Link.com,2013-08-13 11:57:00,
2013-08-13 08:12:00,55.8,51.4,29.95,SSE,157,10.4,-999.0,85,-99.99,,,0.00,Acu-Link.com,2013-08-13 12:12:00,
2013-08-13 08:27:00,55.4,51.0,29.96,South,180,9.4,-999.0,85,-99.99,,,0.00,Acu-Link.com,2013-08-13 12:27:00,
2013-08-13 08:42:00,55.9,51.1,29.96,SSW,202,14.0,-999.0,84,-99.99,,,0.00,Acu-Link.com,2013-08-13 12:42:00,
2013-08-13 08:58:00,56.3,51.8,29.96,South,180,11.4,-999.0,85,-99.99,,,0.00,Acu-Link.com,2013-08-13 12:58:00,
2013-08-13 09:13:00,56.3,51.8,29.96,SSW,202,11.4,-999.0,85,-99.99,,,0.00,Acu-Link.com,2013-08-13 13:13:00,
2013-08-13 09:28:00,56.7,50.9,29.97,SSW,202,11.4,-999.0,81,-99.99,,,0.00,Acu-Link.com,2013-08-13 13:28:00,
2013-08-13 09:43:00,56.5,50.1,29.98,SW,225,9.9,-999.0,79,-99.99,,,0.00,Acu-Link.com,2013-08-13 13:43:00,
2013-08-13 09:58:00,57.0,50.6,29.98,SSW,202,9.9,-999.0,79,-99.99,,,0.00,Acu-Link.com,2013-08-13 13:58:00,
2013-08-13 10:13:00,57.0,50.2,29.98,SSW,202,9.9,-999.0,78,-99.99,,,0.00,Acu-Link.com,2013-08-13 14:13:00,
2013-08-13 10:28:00,57.2,49.7,29.98,SW,225,11.9,-999.0,76,-99.99,,,0.00,Acu-Link.com,2013-08-13 14:28:00,
2013-08-13 10:43:00,56.7,49.9,29.99,SSW,202,13.0,-999.0,78,-99.99,,,0.00,Acu-Link.com,2013-08-13 14:43:00,
2013-08-13 10:58:00,56.7,50.3,30.00,SW,225,11.9,-999.0,79,-99.99,,,0.00,Acu-Link.com,2013-08-13 14:58:00,
2013-08-13 11:14:00,56.7,49.9,30.00,SSW,202,14.0,-999.0,78,-99.99,,,0.00,Acu-Link.com,2013-08-13 15:14:00,
2013-08-13 11:29:00,56.7,49.9,30.01,SW,225,12.5,-999.0,78,-99.99,,,0.00,Acu-Link.com,2013-08-13 15:29:00,
2013-08-13 11:44:00,56.5,49.4,30.01,SSW,202,11.9,-999.0,77,-99.99,,,0.00,Acu-Link.com,2013-08-13 15:44:00,
2013-08-13 11:59:00,56.8,49.3,30.02,SSW,202,8.9,-999.0,76,-99.99,,,0.00,Acu-Link.com,2013-08-13 15:59:00,
2013-08-13 12:14:00,57.6,49.0,30.02,SSW,202,11.4,-999.0,73,-99.99,,,0.00,Acu-Link.com,2013-08-13 16:14:00,
2013-08-13 12:29:00,57.9,50.0,30.01,SSW,202,13.0,-999.0,75,-99.99,,,0.00,Acu-Link.com,2013-08-13 16:29:00,
2013-08-13 12:44:00,58.1,49.1,30.02,SSW,202,14.0,-999.0,72,-99.99,,,0.00,Acu-Link.com,2013-08-13 16:44:00,
2013-08-13 12:59:00,58.3,50.0,30.02,SSW,202,14.0,-999.0,74,-99.99,,,0.00,Acu-Link.com,2013-08-13 16:59:00,
2013-08-13 13:14:00,58.5,49.9,30.02,SW,225,13.0,-999.0,73,-99.99,,,0.00,Acu-Link.com,2013-08-13 17:14:00,
2013-08-13 13:29:00,57.9,50.4,30.03,SSW,202,15.5,-999.0,76,-99.99,,,0.00,Acu-Link.com,2013-08-13 17:29:00,
2013-08-13 13:44:00,57.9,51.1,30.03,SSW,202,12.5,-999.0,78,-99.99,,,0.00,Acu-Link.com,2013-08-13 17:44:00,
2013-08-13 13:59:00,57.7,49.8,30.03,SSW,202,15.5,-999.0,75,-99.99,,,0.00,Acu-Link.com,2013-08-13 17:59:00,
2013-08-13 14:30:00,58.3,51.1,30.03,SSW,202,17.1,-999.0,77,-99.99,,,0.00,Acu-Link.com,2013-08-13 18:30:00,
2013-08-13 14:45:00,57.7,50.5,30.03,SSW,202,17.1,-999.0,77,-99.99,,,0.00,Acu-Link.com,2013-08-13 18:45:00,
2013-08-13 15:00:00,58.1,51.3,30.03,SSW,202,16.1,-999.0,78,-99.99,,,0.00,Acu-Link.com,2013-08-13 19:00:00,
2013-08-13 15:15:00,58.5,52.4,30.03,SSW,202,17.1,-999.0,80,-99.99,,,0.00,Acu-Link.com,2013-08-13 19:15:00,
2013-08-13 15:30:00,58.1,51.6,30.03,SSW,202,17.6,-999.0,79,-99.99,,,0.00,Acu-Link.com,2013-08-13 19:30:00,
2013-08-13 15:45:00,58.1,50.9,30.03,SW,225,15.5,-999.0,77,-99.99,,,0.00,Acu-Link.com,2013-08-13 19:45:00,
2013-08-13 16:00:00,58.1,51.3,30.03,SSW,202,15.5,-999.0,78,-99.99,,,0.00,Acu-Link.com,2013-08-13 20:00:00,
2013-08-13 16:15:00,58.3,50.8,30.03,SSW,202,15.5,-999.0,76,-99.99,,,0.00,Acu-Link.com,2013-08-13 20:15:00,
2013-08-13 16:30:00,58.5,51.0,30.03,SSW,202,15.5,-999.0,76,-99.99,,,0.00,Acu-Link.com,2013-08-13 20:30:00,
2013-08-13 16:45:00,58.5,51.0,30.03,SW,225,13.0,-999.0,76,-99.99,,,0.00,Acu-Link.com,2013-08-13 20:45:00,
2013-08-13 17:00:00,58.6,50.7,30.03,SSW,202,14.0,-999.0,75,-99.99,,,0.00,Acu-Link.com,2013-08-13 21:00:00,
2013-08-13 17:15:00,58.3,50.8,30.03,SSW,202,12.5,-999.0,76,-99.99,,,0.00,Acu-Link.com,2013-08-13 21:15:00,
2013-08-13 17:30:00,58.1,50.6,30.03,SSW,202,14.5,-999.0,76,-99.99,,,0.00,Acu-Link.com,2013-08-13 21:30:00,
2013-08-13 17:45:00,57.9,50.0,30.04,SSW,202,15.5,-999.0,75,-99.99,,,0.00,Acu-Link.com,2013-08-13 21:45:00,
2013-08-13 18:01:00,57.9,49.7,30.03,South,180,11.9,-999.0,74,-99.99,,,0.00,Acu-Link.com,2013-08-13 22:01:00,
2013-08-13 18:16:00,58.8,50.5,30.03,SSW,202,11.9,-999.0,74,-99.99,,,0.00,Acu-Link.com,2013-08-13 22:16:00,
2013-08-13 18:31:00,58.8,50.2,30.03,SSW,202,11.9,-999.0,73,-99.99,,,0.00,Acu-Link.com,2013-08-13 22:31:00,
2013-08-13 18:46:00,58.5,48.4,30.03,SSW,202,14.0,-999.0,69,-99.99,,,0.00,Acu-Link.com,2013-08-13 22:46:00,
2013-08-13 19:01:00,58.6,48.8,30.03,SSW,202,14.5,-999.0,70,-99.99,,,0.00,Acu-Link.com,2013-08-13 23:01:00,
2013-08-13 19:16:00,58.5,48.7,30.03,SSW,202,12.5,-999.0,70,-99.99,,,0.00,Acu-Link.com,2013-08-13 23:16:00,
2013-08-13 19:31:00,58.5,49.1,30.03,SSW,202,13.0,-999.0,71,-99.99,,,0.00,Acu-Link.com,2013-08-13 23:31:00,
2013-08-13 19:46:00,58.8,49.0,30.02,SSW,202,13.0,-999.0,70,-99.99,,,0.00,Acu-Link.com,2013-08-13 23:46:00,
2013-08-13 20:01:00,58.8,48.7,30.03,SSW,202,10.9,-999.0,69,-99.99,,,0.00,Acu-Link.com,2013-08-14 00:01:00,
2013-08-13 20:16:00,59.0,48.5,30.02,SSW,202,10.4,-999.0,68,-99.99,,,0.00,Acu-Link.com,2013-08-14 00:16:00,
2013-08-13 20:31:00,58.5,49.1,30.02,South,180,9.9,-999.0,71,-99.99,,,0.00,Acu-Link.com,2013-08-14 00:31:00,
2013-08-13 20:46:00,58.1,48.7,30.02,South,180,10.4,-999.0,71,-99.99,,,0.00,Acu-Link.com,2013-08-14 00:46:00,
2013-08-13 21:01:00,56.3,47.0,30.02,SE,135,4.2,-999.0,71,-99.99,,,0.00,Acu-Link.com,2013-08-14 01:01:00,
2013-08-13 21:16:00,55.0,46.5,30.02,SE,135,4.2,-999.0,73,-99.99,,,0.00,Acu-Link.com,2013-08-14 01:16:00,
2013-08-13 21:32:00,54.3,46.2,30.02,ESE,112,4.7,-999.0,74,-99.99,,,0.00,Acu-Link.com,2013-08-14 01:32:00,
2013-08-13 21:47:00,54.5,46.0,30.02,SSE,157,6.3,-999.0,73,-99.99,,,0.00,Acu-Link.com,2013-08-14 01:47:00,
2013-08-13 22:02:00,54.5,45.7,30.02,SSE,157,6.8,-999.0,72,-99.99,,,0.00,Acu-Link.com,2013-08-14 02:02:00,
2013-08-13 22:17:00,54.9,45.3,30.02,SSE,157,6.8,-999.0,70,-99.99,,,0.00,Acu-Link.com,2013-08-14 02:17:00,
2013-08-13 22:32:00,54.5,46.0,30.03,South,180,7.3,-999.0,73,-99.99,,,0.00,Acu-Link.com,2013-08-14 02:32:00,
2013-08-13 22:47:00,54.1,46.4,30.03,South,180,5.3,-999.0,75,-99.99,,,0.00,Acu-Link.com,2013-08-14 02:47:00,
2013-08-13 23:03:00,52.9,44.8,30.03,SSE,157,1.7,-999.0,74,-99.99,,,0.00,Acu-Link.com,2013-08-14 03:03:00,
2013-08-13 23:18:00,52.3,44.6,30.03,SSE,157,2.2,-999.0,75,-99.99,,,0.00,Acu-Link.com,2013-08-14 03:18:00,
2013-08-13 23:33:00,51.3,44.7,30.03,SSE,157,1.1,-999.0,78,-99.99,,,0.00,Acu-Link.com,2013-08-14 03:33:00,
2013-08-13 23:49:00,53.8,45.7,30.03,South,180,7.3,-999.0,74,-99.99,,,0.00,Acu-Link.com,2013-08-14 03:49:00,